Latest Weather Observations for Fawkner Beacon

IDV60801

Issued at 4:35 am EST Wednesday 3 September 2014 (issued every 30 minutes, with the page automatically refreshed every 10 minutes)

About weather observations | Map of weather stations | Latest weather observations for VIC | Other Formats
Station Details ID: 086376 Name: FAWKNER BEACON Lat: -37.91 Lon: 144.93 Height: 17.0 m
Data from the previous 72 hours. | See also: Recent months for locations in Victoria
Date/Time
EST
Temp
°C
App
Temp
°C
Dew
Point
Rel
Hum
%
Delta-T
°C
Wind Press
QNH
hPa
Press
MSL
hPa
Rain
since 9 am
mm
Dir
 
Spd
km/h
Gust
km/h
Spd
kts
Gust
kts
03/04:30am - - - - - S 26 30 14 16 - - -
03/04:00am - - - - - S 30 33 16 18 - - -
03/03:30am - - - - - S 33 41 18 22 - - -
03/03:00am - - - - - S 32 39 17 21 - - -
03/02:30am - - - - - S 32 35 17 19 - - -
03/02:00am - - - - - SW 24 28 13 15 - - -
03/01:30am - - - - - S 28 30 15 16 - - -
03/01:00am - - - - - SSE 30 35 16 19 - - -
03/12:30am - - - - - S 30 35 16 19 - - -
03/12:00am - - - - - S 33 41 18 22 - - -
 
Date/Time
EST
Temp
°C
App
Temp
°C
Dew
Point
Rel
Hum
%
Delta-T
°C
Wind Press
QNH
hPa
Press
MSL
hPa
Rain
since 9 am
mm
Dir
 
Spd
km/h
Gust
km/h
Spd
kts
Gust
kts
02/11:30pm - - - - - S 32 39 17 21 - - -
02/11:00pm - - - - - S 30 33 16 18 - - -
02/10:30pm - - - - - S 28 32 15 17 - - -
02/10:00pm - - - - - S 30 35 16 19 - - -
02/09:30pm - - - - - SSW 30 33 16 18 - - -
02/09:00pm - - - - - S 28 33 15 18 - - -
02/08:30pm - - - - - S 30 33 16 18 - - -
02/08:00pm - - - - - S 30 39 16 21 - - -
02/07:30pm - - - - - S 28 33 15 18 - - -
02/07:00pm - - - - - SSW 32 39 17 21 - - -
02/06:30pm - - - - - S 33 39 18 21 - - -
02/06:10pm - - - - - S 32 44 17 24 - - -
02/06:00pm - - - - - SSE 17 20 9 11 - - -
02/05:30pm - - - - - SE 28 32 15 17 - - -
02/05:00pm - - - - - SSE 28 35 15 19 - - -
02/04:30pm - - - - - SSE 26 32 14 17 - - -
02/04:00pm - - - - - SSE 28 33 15 18 - - -
02/03:30pm - - - - - SSE 30 39 16 21 - - -
02/03:00pm - - - - - SSE 35 43 19 23 - - -
02/02:30pm - - - - - SSE 37 44 20 24 - - -
02/02:00pm - - - - - SSE 37 43 20 23 - - -
02/01:30pm - - - - - SSE 39 44 21 24 - - -
02/01:00pm - - - - - S 37 44 20 24 - - -
02/12:30pm - - - - - S 37 44 20 24 - - -
02/12:00pm - - - - - S 41 46 22 25 - - -
02/11:30am - - - - - S 41 46 22 25 - - -
02/11:00am - - - - - S 39 46 21 25 - - -
02/10:30am - - - - - S 35 44 19 24 - - -
02/10:00am - - - - - S 32 39 17 21 - - -
02/09:30am - - - - - S 37 50 20 27 - - -
02/09:00am - - - - - S 33 41 18 22 - - -
02/08:30am - - - - - S 30 35 16 19 - - -
02/08:00am - - - - - SSW 30 33 16 18 - - -
02/07:30am - - - - - SW 32 39 17 21 - - -
02/07:00am - - - - - SW 28 33 15 18 - - -
02/06:30am - - - - - SW 28 35 15 19 - - -
02/06:00am - - - - - SSW 24 28 13 15 - - -
02/05:30am - - - - - SW 26 30 14 16 - - -
02/05:00am - - - - - SSW 22 32 12 17 - - -
02/04:30am - - - - - WSW 33 43 18 23 - - -
02/04:19am - - - - - WSW 33 41 18 22 - - -
02/04:00am - - - - - SSW 19 22 10 12 - - -
02/03:30am - - - - - SW 32 35 17 19 - - -
02/03:00am - - - - - SW 35 44 19 24 - - -
02/02:30am - - - - - WSW 30 33 16 18 - - -
02/02:00am - - - - - SW 19 24 10 13 - - -
02/01:30am - - - - - SSW 39 46 21 25 - - -
02/01:00am - - - - - SW 24 30 13 16 - - -
02/12:30am - - - - - SSW 32 35 17 19 - - -
02/12:00am - - - - - WSW 28 33 15 18 - - -
 
Date/Time
EST
Temp
°C
App
Temp
°C
Dew
Point
Rel
Hum
%
Delta-T
°C
Wind Press
QNH
hPa
Press
MSL
hPa
Rain
since 9 am
mm
Dir
 
Spd
km/h
Gust
km/h
Spd
kts
Gust
kts
01/11:30pm - - - - - WSW 26 32 14 17 - - -
01/11:00pm - - - - - WSW 24 30 13 16 - - -
01/10:30pm - - - - - WSW 20 24 11 13 - - -
01/10:00pm - - - - - W 17 22 9 12 - - -
01/09:30pm - - - - - W 17 22 9 12 - - -
01/09:00pm - - - - - WNW 20 24 11 13 - - -
01/08:30pm - - - - - W 19 24 10 13 - - -
01/08:00pm - - - - - W 19 22 10 12 - - -
01/07:30pm - - - - - SW 20 24 11 13 - - -
01/07:00pm - - - - - SW 19 22 10 12 - - -
01/06:30pm - - - - - W 13 26 7 14 - - -
01/06:00pm - - - - - WSW 9 11 5 6 - - -
01/05:30pm - - - - - WSW 9 11 5 6 - - -
01/05:00pm - - - - - SSW 13 17 7 9 - - -
01/04:30pm - - - - - W 11 13 6 7 - - -
01/04:00pm - - - - - W 13 15 7 8 - - -
01/03:30pm - - - - - W 17 22 9 12 - - -
01/03:00pm - - - - - WSW 17 20 9 11 - - -
01/02:30pm - - - - - WSW 26 32 14 17 - - -
01/02:03pm - - - - - SW 35 44 19 24 - - -
01/02:00pm - - - - - NNW 11 17 6 9 - - -
01/01:30pm - - - - - N 17 20 9 11 - - -
01/01:00pm - - - - - NNW 17 22 9 12 - - -
01/12:30pm - - - - - NNW 24 28 13 15 - - -
01/12:00pm - - - - - N 22 24 12 13 - - -
01/11:30am - - - - - NNW 17 20 9 11 - - -
01/11:00am - - - - - WNW 26 30 14 16 - - -
01/10:30am - - - - - NNW 30 35 16 19 - - -
01/10:00am - - - - - NW 28 32 15 17 - - -
01/09:30am - - - - - NW 30 39 16 21 - - -
01/09:00am - - - - - NNW 33 41 18 22 - - -
01/08:30am - - - - - NW 28 32 15 17 - - -
01/08:00am - - - - - NNW 46 61 25 33 - - -
01/07:30am - - - - - NNW 39 46 21 25 - - -
01/07:00am - - - - - N 48 59 26 32 - - -
01/06:30am - - - - - N 54 63 29 34 - - -
01/06:00am - - - - - NNW 44 59 24 32 - - -
01/05:30am - - - - - NNW 46 59 25 32 - - -
01/05:00am - - - - - NNW 46 57 25 31 - - -
01/04:30am - - - - - N 48 57 26 31 - - -
01/04:00am - - - - - N 50 61 27 33 - - -
01/03:30am - - - - - N 48 61 26 33 - - -
01/03:00am - - - - - N 57 70 31 38 - - -
01/02:30am - - - - - N 52 69 28 37 - - -
01/02:27am - - - - - N 48 67 26 36 - - -
01/02:00am - - - - - N 52 67 28 36 - - -
01/01:51am - - - - - N 48 67 26 36 - - -
01/01:30am - - - - - N 50 61 27 33 - - -
01/01:00am - - - - - N 46 54 25 29 - - -
01/12:30am - - - - - N 44 59 24 32 - - -
01/12:15am - - - - - N 46 54 25 29 - - -
01/12:00am - - - - - NNW 28 35 15 19 - - -
 
Date/Time
EST
Temp
°C
App
Temp
°C
Dew
Point
Rel
Hum
%
Delta-T
°C
Wind Press
QNH
hPa
Press
MSL
hPa
Rain
since 9 am
mm
Dir
 
Spd
km/h
Gust
km/h
Spd
kts
Gust
kts
31/11:30pm - - - - - N 28 32 15 17 - - -
31/11:00pm - - - - - N 32 41 17 22 - - -
31/10:30pm - - - - - N 39 44 21 24 - - -
31/10:00pm - - - - - N 39 43 21 23 - - -
31/09:30pm - - - - - N 32 35 17 19 - - -
31/09:00pm - - - - - N 32 35 17 19 - - -
31/08:30pm - - - - - N 33 39 18 21 - - -
31/08:00pm - - - - - N 32 39 17 21 - - -
31/07:30pm - - - - - N 32 39 17 21 - - -
31/07:00pm - - - - - N 32 35 17 19 - - -
31/06:30pm - - - - - N 33 43 18 23 - - -
31/06:00pm - - - - - N 37 43 20 23 - - -
31/05:30pm - - - - - N 39 44 21 24 - - -
31/05:00pm - - - - - N 37 43 20 23 - - -
31/04:30pm - - - - - N 39 44 21 24 - - -
31/04:00pm - - - - - N 39 44 21 24 - - -
31/03:30pm - - - - - N 37 44 20 24 - - -
31/03:00pm - - - - - N 39 44 21 24 - - -
31/02:30pm - - - - - N 32 39 17 21 - - -
31/02:00pm - - - - - N 32 39 17 21 - - -
31/01:30pm - - - - - N 41 48 22 26 - - -
31/01:00pm - - - - - N 35 43 19 23 - - -
31/12:30pm - - - - - N 33 41 18 22 - - -
31/12:00pm - - - - - N 33 39 18 21 - - -
31/11:30am - - - - - N 35 41 19 22 - - -
31/11:00am - - - - - N 33 41 18 22 - - -
31/10:30am - - - - - N 32 41 17 22 - - -
31/10:00am - - - - - N 33 39 18 21 - - -
31/09:30am - - - - - N 30 33 16 18 - - -
31/09:00am - - - - - N 28 32 15 17 - - -
31/08:30am - - - - - N 30 33 16 18 - - -
31/08:00am - - - - - N 30 35 16 19 - - -
31/07:30am - - - - - N 26 32 14 17 - - -
31/07:00am - - - - - N 26 32 14 17 - - -
31/06:30am - - - - - N 26 30 14 16 - - -
31/06:00am - - - - - N 24 28 13 15 - - -
31/05:30am - - - - - N 24 30 13 16 - - -
31/05:00am - - - - - N 24 28 13 15 - - -

Other Formats:

Comma delimited format used in spreadsheet applications
http://www.bom.gov.au/fwo/IDV60801/IDV60801.95872.axf

JavaScript Object Notation format (JSON) in row-major order
http://www.bom.gov.au/fwo/IDV60801/IDV60801.95872.json